Погода в Глубоком

Россия / Алтайский край     52°59′24″N   80°41′02″E
темп.,
°C
ветер,
м/с
пор.,
м/с
влажн.,
%
обл.,
%
осадки,
мм/ч
давл.,
гПа
погр.,
м
8 декабря, ср
ср801:00−17з499712 0.1 1032137
04:00−21з379919 0.0 103594
07:00−23з3510076 0.0 103768
10:00−24з3310090 0.0 103950
13:00−21з349981 0.0 1040121
16:00−20з249711 0.0 104198
19:00−23з3410028 0.0 104251
22:00−24з3410082 0.0 104347
9 декабря, чт
чт901:00−24зюз3510093 0.0 104465
04:00−24зюз3510074 0.0 104577
07:00−24зюз359915 0.0 104772
10:00−24зюз35976 0.0 104969
13:00−20зюз36945 0.0 1049153
16:00−19юз369419 0.0 1049153
19:00−21юз36975 0.0 105082
22:00−21юз379726 0.0 1050100
10 декабря, пт
пт1001:00−18юз499199 0.0 1049181
04:00−15юз4108790 0.0 1048263
07:00−13ююз5118699 0.0 1047316
10:00−12ююз51185100 0.0 1046324
13:00−11ююз5118488 0.1 1046338
16:00−11ююз498485 0.0 1044281
19:00−13ю398876 0.0 1045150
22:00−14ю37865 0.0 1044105
11 декабря, сб
сб1101:00−15ю37836 0.0 104387
04:00−14ю378053 0.0 104187
07:00−12ююв41078100 0.0 1039153
10:00−12ююв41180100 0.0 1037177
13:00−9ю41277100 0.0 1035262
16:00−8ююв41279100 0.0 1032279
19:00−8ю51478100 0.0 1030298
22:00−7ю61672100 0.0 1027367
12 декабря, вс
вс1201:00−6ю71768100 0.0 1024401
04:00−6ююз61671100 0.0 1022385
07:00−6ююз71871100 0.0 1020440
10:00−5ююз71673100 0.0 1019419
13:00−6ююз7157812 0.0 1019426
16:00−6юз6128675 0.0 1020379
19:00−8зюз51193100 0.0 1023352
22:00−11з4896100 0.0 1025232